Back to catalog

FENGYUN 1C DEB

AliveSSO
NORAD 29962·DEBRIS·🇨🇳 China

Launched May 10, 1999 from Taiyuan Satellite Launch Center

Loading…

Next Passes (next 24 hours)

TLE

FreshSource: Space-Track

Epoch: Sep 13, 2026, 22:25 UTC

1 29962U 99025KL  26256.93442698  .00000012  00000-0  30792-4 0  9997
2 29962  98.7690 261.9719 0110374 165.8604 261.3184 14.07316856  8688

Track FENGYUN 1C DEB in real time with AllMySat

Download on the App Store